Lapse_Rate
5.9 6.0 6.0 6.0 6.1 6.3 6.4 6.3 6.3 6.4 6.5 6.5 6.6 6.7 6.6 6.5 6.5 6.3 5.9 5.5 5.7 5.7 5.7 5.9 5.9 5.8 5.8
6.1 6.0 6.0 6.1 6.3 6.2 6.3 6.3 6.3 6.4 6.4 6.5 6.6 6.6 6.6 6.7 6.6 6.6 6.5 6.4 6.3 6.2 6.3 6.3 6.0 5.9 6.0
6.2 6.2 6.2 6.2 6.2 6.3 6.3 6.3 6.3 6.3 6.4 6.5 6.6 6.6 6.6 6.6 6.7 6.7 6.8 6.7 6.6 6.5 6.5 6.5 6.5 6.4 6.1
6.3 6.3 6.2 6.3 6.3 6.3 6.3 6.3 6.3 6.4 6.4 6.5 6.5 6.6 6.6 6.7 6.8 6.9 6.9 6.9 6.9 6.8 6.9 6.9 6.9 6.7 6.7
6.3 6.3 6.3 6.3 6.4 6.3 6.4 6.4 6.4 6.5 6.6 6.6 6.7 6.7 6.8 6.9 7.0 7.1 7.0 7.0 7.0 7.0 7.0 7.0 6.9 6.9 6.8
6.3 6.4 6.3 6.4 6.4 6.4 6.4 6.4 6.4 6.5 6.6 6.7 6.8 6.9 7.0 7.0 7.0 7.0 6.9 6.9 7.0 7.0 7.0 7.0 6.9 6.7 6.5
6.4 6.4 6.4 6.4 6.3 6.3 6.4 6.4 6.4 6.5 6.6 6.7 6.8 6.9 6.9 6.9 6.9 7.0 7.0 7.0 7.0 7.0 7.0 6.9 6.8 6.7 6.6
6.3 6.3 6.3 6.2 6.2 6.3 6.1 6.2 6.3 6.5 6.6 6.7 6.7 6.7 6.7 6.7 6.8 6.9 7.0 7.0 6.9 6.8 6.7 6.7 6.5 6.3 6.1
6.3 6.3 6.2 6.1 6.1 6.1 6.0 6.2 6.3 6.2 6.5 6.5 6.6 6.6 6.6 6.6 6.6 6.8 6.8 6.8 6.7 6.6 6.5 6.3 6.2 6.0 5.9
6.3 6.2 6.1 6.1 6.0 5.9 6.0 6.0 6.2 6.2 6.3 6.4 6.4 6.5 6.4 6.4 6.4 6.5 6.4 6.4 6.4 6.4 6.2 6.1 6.0 6.0 5.8
6.2 6.2 6.1 6.1 6.0 5.9 5.9 5.9 6.0 6.3 6.2 6.3 6.3 6.3 6.3 6.2 6.3 6.3 6.2 6.1 6.1 6.2 6.1 6.0 6.0 5.9 5.8
6.2 6.2 6.1 6.0 5.9 5.8 5.8 5.9 6.0 6.1 6.2 6.2 6.2 6.2 6.2 6.0 6.0 6.0 5.9 5.9 6.1 6.1 6.1 6.1 6.0 5.9 5.8
6.2 6.1 6.1 6.1 5.9 5.7 5.7 5.8 5.9 5.9 6.0 6.1 6.2 6.2 6.1 6.0 6.0 5.8 5.8 5.8 5.9 5.9 6.0 6.0 5.9 5.9 5.9
6.1 6.1 6.0 5.9 5.8 5.7 5.7 5.7 5.7 5.8 5.8 5.9 6.1 6.1 6.0 5.9 5.9 5.7 5.7 5.7 5.6 5.8 6.0 6.0 5.9 5.8 5.8
6.0 5.9 5.9 5.8 5.6 5.6 5.6 5.6 5.7 5.7 5.6 5.7 5.9 6.0 5.9 5.8 5.7 5.6 5.5 5.5 5.6 5.8 5.9 6.0 5.9 5.7 5.8
5.8 5.8 5.7 5.6 5.6 5.6 5.5 5.4 5.5 5.7 5.7 5.8 5.8 5.9 5.8 5.6 5.5 5.6 5.4 5.5 5.7 5.8 5.8 5.9 5.7 5.6 5.6
5.7 5.5 5.2 5.1 4.9 4.9 5.0 5.2 5.3 5.5 5.6 5.6 5.7 5.7 5.8 5.6 5.5 5.5 5.4 5.4 5.6 5.5 5.6 5.6 5.7 5.6 5.6
Wind_Speed
2 2 2 2 2 2 4 7 9 7 8 8 9 10 9 9 8 8 7 6 5 3 1 1 3 2 3
1 2 2 1 1 2 3 7 7 6 9 11 11 8 4 4 4 4 5 5 4 3 3 3 3 4 3
2 1 1 1 1 1 2 4 6 6 7 8 8 8 9 8 8 7 6 4 4 6 6 5 4 3 3
3 2 2 2 2 2 2 2 2 7 4 5 5 4 4 4 5 5 4 4 3 2 2 2 1 2 2
2 2 1 2 2 1 2 1 3 4 2 4 4 4 3 6 5 4 3 2 2 2 2 2 2 2 3
1 2 1 2 2 1 1 2 1 6 2 3 2 2 4 5 3 3 2 1 2 2 2 3 3 1 2
3 2 2 1 2 2 2 1 1 2 3 2 3 2 2 2 3 1 2 2 3 2 1 1 3 5 6
5 5 5 4 4 4 3 1 1 2 2 1 2 2 4 5 2 2 1 2 3 2 1 1 2 4 5
9 7 6 5 6 3 2 3 2 0 3 2 2 2 2 1 3 2 1 1 0 2 3 4 5 6 5
3 4 5 5 5 6 3 2 1 2 2 2 2 2 3 2 2 2 3 5 4 5 6 7 8 8 7
3 3 3 3 3 7 6 3 1 1 1 3 1 1 0 2 2 5 8 5 5 6 6 9 11 11 5
2 2 2 2 2 7 4 2 1 2 3 2 1 1 1 2 2 3 3 15 13 7 7 10 11 12 14
2 2 3 4 6 5 4 4 5 6 7 6 5 3 1 3 4 4 7 3 13 7 6 5 8 10 6
2 2 3 2 2 2 2 1 1 2 8 9 9 6 2 3 6 7 6 4 2 4 8 10 10 11 12
2 2 2 3 3 2 2 2 3 1 1 2 9 12 10 6 6 7 8 5 4 6 6 5 6 10 12
3 3 3 3 4 2 2 3 3 2 3 2 2 1 2 8 20 8 5 5 4 5 4 4 8 7 16
4 4 4 4 6 3 3 3 3 3 3 3 4 3 4 7 3 11 7 2 2 2 2 3 6 8 10
Wind_Direction
109 78 71 64 80 112 86 79 58 52 67 59 58 62 65 74 79 81 87 90 89 81 95 275 286 292 246
120 131 99 122 134 109 100 94 83 66 70 71 68 63 66 71 78 86 83 84 79 71 61 45 49 59 52
131 126 140 216 204 184 148 133 117 85 78 67 66 62 63 74 80 81 80 74 90 89 80 73 53 27 351
120 134 125 224 98 97 50 52 43 45 54 96 79 69 71 63 77 61 51 48 59 96 69 46 10 322 295
119 87 81 56 109 328 92 34 26 31 5 17 55 31 86 60 76 59 17 344 308 278 263 249 248 225 208
129 131 147 129 65 69 84 51 28 12 43 332 41 21 82 99 73 46 7 324 248 233 234 235 236 278 262
119 102 109 101 115 46 56 99 136 294 73 349 5 25 359 141 132 348 311 289 263 253 203 298 246 239 247
92 91 101 114 122 152 180 183 17 36 67 87 355 336 339 28 58 9 19 168 158 114 127 308 284 263 256
90 92 91 99 89 84 25 64 1 103 19 88 343 322 315 313 30 96 148 122 101 327 292 277 251 252 287
72 93 100 93 81 83 127 114 91 16 317 79 5 41 346 311 312 302 309 315 300 290 281 273 275 278 279
142 144 129 133 110 94 91 121 111 201 25 93 344 327 223 299 321 315 310 293 308 301 303 304 291 283 241
156 174 167 174 141 101 98 64 52 218 328 138 223 128 347 298 257 323 343 325 306 278 298 300 295 291 283
187 201 169 153 120 113 215 222 257 275 260 253 185 236 207 254 281 297 311 317 307 277 299 294 294 288 289
197 199 135 116 162 188 175 206 223 253 262 252 236 204 232 235 269 280 279 274 310 315 282 288 287 283 277
161 168 172 176 205 211 183 191 220 228 249 252 241 228 225 234 262 258 268 262 257 268 271 279 278 277 272
194 188 196 203 209 223 186 181 218 222 238 220 209 221 255 253 242 254 251 258 255 261 263 282 285 264 262
194 198 201 209 230 204 208 199 220 207 212 221 220 212 255 270 272 262 225 239 260 289 266 278 274 283 279